COSMOS 249 DEB, 14430

Orbit data source: Space-Track

COSMOS 249 DEB, 14430 is space debris in LEO originally from a launch on Sun, 20 Oct 1968 UTC launched from the Tyuratam Missile And Space Complex (TTMTR). Debris objects in space refer to the collection of defunct objects orbiting the Earth. Examples of debris include non-operational satellites, rocket bodies, and fragments generated from explosions, collisions, or faulty payload assembly.

Loading next visibility...
Identifier
14430, 1968-091CV
Orbit
LEO
Country
Flag of CISCIS
Related business
Manufacturer
Unknown
Mission
Spacecraft
Bus & Motor
Unknown
Mass
Unknown
Launch date (UTC)
1968-10-20 (58 years ago)
Launch vehicle
Unknown
Launch site
Tyuratam Missile And Space Complex (TTMTR)
Object type
Payload
Rocket body
Debris
Shape & HBR
Unknown shape, 1.1 m
Radar Cross Section
Medium (>0.1 m² and <1 m²)

Expand to show TLE details & history
Last TLE update: 1 day ago

TLE from 1 day ago
0 COSMOS 249 DEB
1 14430U 68091CV  26235.04965478  .00000807  00000-0  10180-2 0  9994
2 14430  62.2410 102.8532 0659148 190.1556 322.0687 13.02209464109593
Epoch: 2026-08-23T01:11Z
TLE epoch observation values (Epoch: 2026-08-23T01:11:30.172Z)
Latitude
28.65795°
Longitude
-82.99977°
Altitude
872.523 km
Speed
7.603 km/s
True Right ascension
17h 44m 54s
True Declination
28° 30' 57"
Sunlit
Object was in daylight at epoch
Visualization orbit readout
Latitude
Unknown
Longitude
Unknown
Altitude
Unknown
Speed
Unknown
Apparent Right ascension
Unknown
Apparent Declination
Unknown
Sunlit
N/A
Visualization observer readout
Local Sidereal Time
21:35:27
Azimuth
Unknown
Elevation
Unknown
Doppler factor
Unknown
Orbital elements
Apogee altitude
1,755.404 km
Perigee altitude
749.468 km
Semi-major axis
7,630.573 km
Eccentricity
0.06591
Inclination
62.241°
RAAN
102.8532°
Arg. of periapsis
190.1556°
True anomaly
317.11008°
Mean anomaly
322.0687°
Eccentric anomaly
319.62209°
Mean motion
3.25617 °/min
Orbital period
110.56 mins
BSTAR
0.001018
Loading maneuver chart data...
Computing Atmospheric mass density...
Loading historical data...
Loading historical data...
Loading historical data...
Loading historical data...
Loading historical data...
Loading historical data...
Loading historical data...

Documentation

Showing up to 5 results
|